Weather in Ababkovo

Russia / Nizhny Novgorod Oblast'     56°01′40″N   43°09′18″E
temp.,
°C
wind,
m/s
gust,
m/s
humid.,
%
clouds,
%
prec.,
mm/h
press.,
hPa
HPBL,
m
1 july, fri
fri100:00+13ne51053100 0.0 1014306
03:00+9nne510652 0.0 1016302
06:00+10ne610661 0.0 1016725
09:00+12nne71054100 0.0 10171442
12:00+9ne61178100 0.4 10191174
15:00+13ne7106388 0.4 10191451
18:00+14ne486471 0.0 10191050
21:00+11nne36805 0.0 102085
2 july, sat
sat200:00+9n410900 0.0 1020163
03:00+9n368910 0.0 102094
06:00+12n410775 0.0 1020249
09:00+18n57552 0.0 1020789
12:00+21nne57455 0.0 10181744
15:00+23nne56445 0.0 10171744
18:00+22n37582 0.0 1015361
21:00+17nw4107484 0.0 1015162
3 july, sun
sun300:00+17nw4972100 0.0 1014209
03:00+15nnw388460 0.0 1013148
06:00+17ne38810 0.0 1014268
09:00+20ne586814 0.0 1014991
12:00+22ne68532 0.0 10141515
15:00+23ne575013 0.0 10141798
18:00+23nne36619 0.0 1014496
21:00+16ese2279100 0.0 101611
4 july, mon
mon400:00+14ene11824 0.0 101611
03:00+13nw11835 0.0 101710
06:00+16nw248198 0.0 1017121
09:00+21nnw465866 0.0 1017637
12:00+25nne464621 0.0 10172301
15:00+26n35425 0.0 10162381
18:00+25n23575 0.0 1015181
21:00+19ese126613 0.0 101611
5 july, tue
tue500:00+18s226578 0.0 101735
03:00+18sw226967 0.0 101719
06:00+20wnw227039 0.0 101776
09:00+24w12550 0.0 1017448
12:00+27wsw22440 0.0 10161520
15:00+28sw134017 0.0 10151789
18:00+27sw3456100 0.0 1014128
21:00+19sw478358 0.1 1014113